Location: Dalton
(34.7700°N, 84.9700°W)
Time: 07:15:25
(UTC-04:00)

Vanguard 1 Rocket - All Passes

Search period start: 18 October 2017 00:00
Search period end: 28 October 2017 00:00
Orbit: 655 x 4222 km, 34.3° (Epoch: 17 October)

Date Brightness Start Highest point End Pass type
(mag) Time Alt. Az. Time Alt. Az. Time Alt. Az.
18 Oct - 06:48:54 10° SSW 06:56:33 23° SSE 07:01:37 10° ESE visible
18 Oct - 09:15:23 10° WSW 09:22:11 57° SSE 09:26:44 10° E daylight
18 Oct - 11:42:13 10° W 11:46:56 85° S 11:51:32 10° E daylight
18 Oct - 14:07:18 10° W 14:11:34 39° SSW 14:17:33 10° SE daylight
18 Oct - 16:34:29 10° SW 16:37:18 13° SSW 16:40:45 10° S daylight
19 Oct - 05:37:52 10° S 05:44:46 17° SSE 05:49:46 10° ESE visible
19 Oct - 08:02:59 10° SW 08:11:17 42° SSE 08:16:17 10° E daylight
19 Oct - 10:30:40 10° W 10:36:17 84° S 10:40:41 10° E daylight
19 Oct - 12:56:37 10° W 13:00:55 57° SSW 13:06:04 10° ESE daylight
19 Oct - 15:22:12 10° WSW 15:25:56 19° SSW 15:30:54 10° SSE daylight
20 Oct - 04:29:32 10° SSE 04:32:26 11° SSE 04:35:02 10° SE visible
20 Oct - 06:50:29 10° SW 06:59:59 32° SSE 07:05:42 10° E visible
20 Oct - 09:18:25 10° WSW 09:25:35 71° SSE 09:30:13 10° E daylight
20 Oct - 11:45:36 10° W 11:50:21 77° S 11:54:54 10° ESE daylight
20 Oct - 14:11:02 10° W 14:14:57 28° SSW 14:20:06 10° SE daylight
21 Oct - 05:38:16 10° SSW 05:48:14 24° SSE 05:54:35 10° ESE visible
21 Oct - 08:05:37 10° WSW 08:14:40 55° SSE 08:19:53 10° E daylight
21 Oct - 10:33:58 10° W 10:39:43 86° S 10:44:07 10° E daylight
21 Oct - 13:00:06 10° W 13:04:17 43° SSW 13:09:07 10° SE daylight
21 Oct - 15:27:32 10° SW 15:29:21 11° SSW 15:31:25 10° S daylight
22 Oct - 04:26:59 10° S 04:35:57 17° SSE 04:42:21 10° ESE visible
22 Oct - 06:52:30 10° SW 07:03:24 43° SSE 07:09:28 10° E visible
22 Oct - 09:21:34 10° WSW 09:28:58 81° S 09:33:41 10° E daylight
22 Oct - 11:48:59 10° W 11:53:45 65° SSW 11:58:14 10° ESE daylight
22 Oct - 14:15:04 10° WSW 14:18:18 18° SSW 14:22:14 10° SSE daylight
23 Oct - 03:18:53 10° SSE 03:23:07 11° SSE 03:26:50 10° SE visible
23 Oct - 05:39:27 10° SSW 05:51:40 33° SSE 05:58:44 10° E visible
23 Oct - 08:08:26 10° WSW 08:18:01 67° SSE 08:23:24 10° E daylight
23 Oct - 10:37:17 10° W 10:43:09 83° S 10:47:33 10° E daylight
23 Oct - 13:03:42 10° W 13:07:36 30° SSW 13:11:57 10° SE daylight
24 Oct - 04:26:56 10° SSW 04:39:23 25° SSE 04:47:17 10° ESE visible
24 Oct - 06:54:50 10° SW 07:06:45 54° SSE 07:13:05 10° E visible
24 Oct - 09:24:46 10° W 09:32:23 86° S 09:37:08 10° E daylight
24 Oct - 11:52:22 10° W 11:57:07 51° SSW 12:01:26 10° ESE daylight
24 Oct - 14:20:08 10° SW 14:21:38 11° SSW 14:23:16 10° S daylight
25 Oct - 03:15:48 10° S 03:26:36 18° SSE 03:34:24 10° ESE visible
25 Oct - 05:41:06 10° SW 05:55:02 43° SSE 06:02:33 10° E visible
25 Oct - 08:11:24 10° WSW 08:21:23 78° S 08:26:52 10° E daylight
25 Oct - 10:40:35 10° W 10:46:34 75° S 10:50:58 10° ESE daylight
25 Oct - 13:07:32 10° WSW 13:10:53 21° SSW 13:14:28 10° SSE daylight
26 Oct - 02:09:11 10° SSE 02:13:14 11° SE 02:16:55 10° SE visible
26 Oct - 04:27:43 10° SSW 04:42:45 33° SSE 04:51:30 10° E visible
26 Oct - 06:57:23 10° WSW 07:10:04 65° SSE 07:16:36 10° E visible
26 Oct - 09:27:59 10° W 09:35:48 87° S 09:40:36 10° E daylight
26 Oct - 11:55:50 10° W 12:00:24 37° SSW 12:04:31 10° SE daylight
27 Oct - 03:15:15 10° SSW 03:29:56 25° SSE 03:39:32 10° E visible
27 Oct - 05:43:06 10° SW 05:58:20 53° SSE 06:06:11 10° E visible
27 Oct - 08:14:28 10° W 08:24:45 85° S 08:30:20 10° E daylight
27 Oct - 10:43:52 10° W 10:49:55 63° SSW 10:54:18 10° ESE daylight
27 Oct - 13:11:57 10° WSW 13:14:05 13° SSW 13:16:17 10° S daylight
